Skip Page Navigation
NASA JPL Caltech
NASA Logo - Jet Propulsion Laboratory + View the NASA Portal
+ Center for Near-Earth Object Studies
JPL Home Earth Solar System Stars & Galaxies Technology
JPL Solar System Dynamics
BODIES ORBITS EPHEMERIDES TOOLS PHYSICAL DATA DISCOVERY FAQ SITE MAP
JPL Small-Body Database Browser
Search: [ help ]  
359429 (2010 LA88)
Classification: Main-belt Asteroid          SPK-ID: 2359429
Ephemeris | Orbit Diagram | Orbital Elements | Mission Design | Physical Parameters | Discovery Circumstances ]

[ show orbit diagram ]
Orbital Elements at Epoch 2459000.5 (2020-May-31.0) TDB
Reference: JPL 11 (heliocentric ecliptic J2000)
 Element Value Uncertainty (1-sigma)   Units 
e .2171634131425237 8.4538e-08  
a 2.65808800927959 2.8326e-08 au
q 2.080848544751218 2.225e-07 au
i 14.12631704207634 1.06e-05 deg
node 320.2846952085118 2.4419e-05 deg
peri 302.5475001213705 3.2782e-05 deg
M 149.9040905690266 2.2012e-05 deg
tp 2458341.381586353178
(2018-Aug-10.88158635)
9.0888e-05 TDB
period 1582.896290635872
4.33
2.5302e-05
6.927e-08
d
yr
n .2274311981964294 3.6355e-09 deg/d
Q 3.235327473807962 3.4477e-08 au
  Orbit Determination Parameters
   # obs. used (total)      139  
   data-arc span      7216 days (19.76 yr)  
   first obs. used      2000-02-02  
   last obs. used      2019-11-05  
   planetary ephem.      DE431  
   SB-pert. ephem.      SB431-N16  
   condition code      0  
   norm. resid. RMS      .5415  
   source      ORB  
   producer      Otto Matic  
   solution date      2019-Dec-04 23:25:41  

Additional Information
 Earth MOID = 1.102 au 
 Jupiter MOID = 2.06645 au 
 T_jup = 3.311 
[ show covariance matrix ]

Ephemeris | Orbit Diagram | Orbital Elements | Mission Design | Physical Parameters | Discovery Circumstances ]

Physical Parameter Table
Parameter Symbol Value Units Sigma Reference Notes
absolute magnitude H 16.5   n/a MPO437517  
diameter diameter 2.088 km 0.625 urn:nasa:pds:neowise_diameters_albedos::2.0[mainbelt] (http://adsabs.harvard.edu/abs/2011ApJ...741...68M)  
geometric albedo albedo 0.147   0.081 urn:nasa:pds:neowise_diameters_albedos::2.0[mainbelt] (http://adsabs.harvard.edu/abs/2011ApJ...741...68M)  

359429 (2010 LA88)          Discovered 2010-Jun-12 by WISE at WISE
Reference: 20130327/Numbers.arcLast Updated: 2013-03-29

Alternate Designations
 2010 LA88 = 2001 OB37 
Ephemeris | Orbit Diagram | Orbital Elements | Mission Design | Physical Parameters | Discovery Circumstances ]
ABOUT SSD CREDITS/AWARDS PRIVACY/COPYRIGHT GLOSSARY LINKS
FirstGov 2020-Jul-10 17:35 UT
(server date/time)  
NASA Home Page
Site Manager:   Ryan S. Park
Webmaster  Alan B. Chamberlin